Tiempo atmosférico en la estación meteorológica de Xinzo De Limia, Ourense (600 m.)



Fecha
DESCASC
Temp. máxima en grados centígrados (hora)
DESCASC
Temp. mínima en grados centígrados (hora)
DESCASC
Temp. media en grados centígrados
DESCASC
Racha de viento máxima en m/sg (hora)
DESCASC
Velocidad máxima media en intervalos de 10 minutos(hora)
DESCASC
Precipitaciones diarias en mm
DESCASC
Precipitaciones de 00:00 a 06:00 en mm
DESCASC
Precipitaciones de 06:00 a 12:00 en mm
DESCASC
Precipitaciones de 12:00 a 18:00 en mm
DESCASC
Precipitaciones de 18:00 a 24:00 en mm
DESCASC
23-01-2021 10.9 (15:50) 3.7 (00:00) 7.3 16.94 (17:50) 10 (18:00) 7.6 0.1 0.5 6.4 0.6
28-12-2020 6.3 (00:00) 0.8 (00:00) 3.6 17.5 (01:20) 9.44 (01:20) 7.6 4.1 0.3 2.5 0.7
20-01-2021 8.7 (13:50) 3.9 (00:00) 6.3 14.44 (03:30) 8.33 (00:10) 27.3 10.9 7.2 8.8 0.4
19-01-2021 8.3 (13:50) -2.7 (-00:0) 2.8 13.89 (23:59) 8.06 (23:40) 0 0 0 0 0
10-01-2021 5 (14:20) -4.4 (23:59) 0.3 11.67 (16:50) 7.22 (14:30) 0 0 0 0 0
09-01-2021 2 (15:30) -10.9 (-00:0) -4.4 12.78 (17:10) 7.22 (17:10) 0 0 0 0 0
21-01-2021 11.1 (13:40) 6.3 (00:00) 8.7 13.33 (23:50) 7.22 (23:59) 5.8 0 2.6 1.7 1.5
29-12-2020 3.9 (15:00) -0.7 (-00:0) 1.6 10.83 (14:50) 5.83 (14:50) 3.8 1.2 0.7 1.9 0
31-12-2020 6.3 (13:30) 0.2 (00:00) 3.3 8.89 (17:30) 5.83 (17:30) 5.5 0 2.6 2.4 0.5
01-01-2021 2.8 (14:10) -0.5 (-00:0) 1.1 9.72 (14:20) 5.28 (14:20) 1.2 0.1 0.1 0.8 0.2
03-01-2021 5.2 (14:40) -2.4 (-00:0) 1.4 8.33 (14:50) 5.28 (12:30) 0.2 0 0 0 0.2
18-01-2021 13.3 (15:50) -6.1 (-00:0) 3.6 7.5 (14:10) 4.72 (13:30) 0 0 0 0 0
24-01-2021 8.4 (17:20) 4.2 (00:00) 6.3 9.72 (18:20) 4.72 (04:20) 0.8 0.6 0 0.1 0.1
25-01-2021 11.2 (16:20) 6 (00:00) 8.6 9.72 (04:50) 4.17 (10:00) 4.4 1.7 1.3 1.4 0
04-01-2021 3.2 (14:30) -4.3 (-00:0) -0.6 6.11 (14:50) 4.17 (14:50) 0.1 0 0.1 0 0
30-12-2020 5.3 (15:00) -0.1 (00:00) 2.6 6.39 (15:40) 4.17 (15:40) 0 0 0 0 0
26-01-2021 13.1 (14:20) 9.2 (00:00) 11.2 8.61 (17:00) 3.89 (17:00) 0.1 0 0.1 0 0
08-01-2021 1 (17:20) -6.9 (-00:0) -3 6.11 (17:40) 3.89 (18:00) 0 0 0 0 0
17-01-2021 11.9 (15:20) -8.1 (-00:0) 1.9 5 (16:30) 3.61 (16:30) 0 0 0 0 0
05-01-2021 2.8 (16:00) -6.4 (-00:0) -1.8 5.28 (16:10) 3.61 (16:50) 0 0 0 0 0
02-01-2021 3.6 (16:30) -2 (-00:0) 0.8 6.11 (15:30) 3.61 (15:30) 0 0 0 0 0
14-01-2021 5.5 (17:00) -9.2 (05:00) -1.8 4.17 (14:40) 3.06 (14:40) 0 0 0 0 0
06-01-2021 -1.9 (15:50) -6.9 (-00:0) -4.4 4.17 (15:40) 2.78 (15:50) 0 0 0 0 0
12-01-2021 9.4 (15:30) -8.8 (-00:0) 0.3 3.33 (18:00) 2.5 (18:00) 0 0 0 0 0
11-01-2021 6.3 (16:30) -9.8 (-00:0) -1.8 3.89 (16:40) 2.5 (17:20) 0 0 0 0 0
15-01-2021 7.1 (16:40) -6.8 (-00:0) 0.1 3.33 (08:40) 2.22 (16:50) 0 0 0 0 0
13-01-2021 11.7 (17:00) -10.5 (-00:0) 0.6 3.33 (17:10) 2.22 (18:00) 0 0 0 0 0
16-01-2021 13.9 (16:20) -9.4 (-00:0) 2.3 3.61 (15:10) 1.94 (14:50) 0 0 0 0 0
07-01-2021 -3 (17:00) -7.2 (-00:0) -5.1 5 (14:40) 1.94 (08:30) 0 0 0 0 0
22-01-2021 -- (--) -- (--) -- -- (--) -- (--) -- -- -- 0.3 0

Gráficas

Temp. máximas Temp. mínimas Temp. medias Precipitaciones Rachas de viento máximas Velocidades máximas media en intervalos de 10 minutos

Datos horarios

Fecha y hora oficial Temperatura (ºC) Velocidad del viento (km/h) Dirección del viento Racha (km/h) Dirección de racha Precipitación (mm) Presión (hPa) Tendencia (hPa) Humedad (%)
2021-01-26 23:00:00 11.3 8 Oeste 22 Oeste 0 -- -- 92
2021-01-26 22:00:00 11.4 10 Oeste 23 Oeste 0 -- -- 92
2021-01-26 21:00:00 11.5 8 Oeste 26 Oeste 0 -- -- 92
2021-01-26 20:00:00 11.5 9 Oeste 23 Noroeste 0 -- -- 92
2021-01-26 19:00:00 11.9 11 Oeste 21 Oeste 0 -- -- 92
2021-01-26 18:00:00 12.3 13 Oeste 28 Norte 0 -- -- 92
2021-01-26 17:00:00 12.8 14 Oeste 31 Norte 0 -- -- 92
2021-01-26 16:00:00 12.7 11 Oeste 24 Oeste 0 -- -- 93
2021-01-26 15:00:00 13 8 Sudoeste 24 Sudoeste 0 -- -- 93
2021-01-26 14:00:00 12.9 8 Sudoeste 19 Sudoeste 0 -- -- 93
2021-01-26 13:00:00 12.4 9 Sudoeste 18 Sudoeste 0 -- -- 93
2021-01-26 12:00:00 11.9 0 Calma 13 Sudoeste 0.1 -- -- 94
2021-01-26 11:00:00 10.8 0 Calma 0 Calma 0 -- -- 94
2021-01-26 10:00:00 10.1 0 Calma -- -- 0 -- -- 94
2021-01-26 09:00:00 9.9 0 Calma 7 Sudeste 0 -- -- 94
2021-01-26 08:00:00 9.5 0 Calma -- -- 0 -- -- 94
2021-01-26 07:00:00 9.3 0 Calma 7 Sur 0 -- -- 94
2021-01-26 06:00:00 9.3 0 Calma -- -- 0 -- -- 93
2021-01-26 05:00:00 9.3 0 Calma 8 Sur 0 -- -- 93
2021-01-26 04:00:00 9.5 4 Sur 8 Sudoeste 0 -- -- 93
2021-01-26 03:00:00 9.4 3 Sudoeste 17 Oeste 0 -- -- 93
2021-01-26 02:00:00 9.4 3 Oeste 18 Oeste 0 -- -- 93
2021-01-26 01:00:00 9.8 8 Oeste 20 Oeste 0 -- -- 93
2021-01-26 00:00:00 9.7 9 Oeste 22 Oeste 0 -- -- 93
2021-01-25 23:00:00 9.6 5 Oeste 16 Oeste 0 -- -- 93
2021-01-25 22:00:00 9.7 8 Oeste 23 Oeste 0 -- -- 93
2021-01-25 21:00:00 9.8 9 Oeste 18 Oeste 0 -- -- 93
2021-01-25 20:00:00 9.8 7 Oeste 15 Oeste 0 -- -- 93
2021-01-25 19:00:00 10 10 Oeste 20 Oeste 0 -- -- 93
2021-01-25 18:00:00 10.5 6 Oeste 15 Sudoeste 0 -- -- 93
2021-01-25 17:00:00 11 8 Sudoeste 19 Sudoeste 0 -- -- 93
2021-01-25 16:00:00 11.1 10 Oeste 26 Oeste 0.4 -- -- 93
2021-01-25 15:00:00 11.1 13 Oeste 26 Oeste 0.6 -- -- 93
2021-01-25 14:00:00 10.6 15 Oeste 26 Oeste 0.1 -- -- 93
2021-01-25 13:00:00 10.3 8 Oeste 27 Oeste 0.3 -- -- 93
2021-01-25 12:00:00 10.1 13 Oeste 23 Oeste 0.5 -- -- 93
2021-01-25 11:00:00 10 11 Oeste 28 Oeste 0.3 -- -- 93
2021-01-25 10:00:00 9.8 15 Oeste 34 Oeste 0.1 -- -- 93
2021-01-25 09:00:00 9.6 10 Oeste 22 Oeste 0.1 -- -- 93
2021-01-25 08:00:00 9.5 8 Oeste 27 Oeste 0.3 -- -- 93
2021-01-25 07:00:00 9.9 10 Sudoeste 24 Oeste 0 -- -- 93
2021-01-25 06:00:00 10 8 Sudoeste 31 Oeste 0.1 -- -- 93
2021-01-25 05:00:00 9.9 13 Oeste 35 Oeste 0.4 -- -- 92
2021-01-25 04:00:00 8.8 9 Sudoeste 23 Sudoeste 0.6 -- -- 92
2021-01-25 03:00:00 8.1 6 Sudoeste 21 Sur 0.1 -- -- 92
2021-01-25 02:00:00 6.8 7 Sudeste 24 Este 0.4 -- -- 91
2021-01-25 01:00:00 6.4 6 Sudeste 14 Sudeste 0.1 -- -- 90
2021-01-25 00:00:00 6.1 7 Sudeste 17 Sudeste 0.1 -- -- 89
2021-01-24 23:00:00 6.4 5 Sudeste 15 Sudeste 0 -- -- 86
2021-01-24 22:00:00 6.3 7 Sudeste 13 Sudeste 0 -- -- 87
2021-01-24 21:00:00 6.4 0 Calma 16 Sudoeste 0 -- -- 85
2021-01-24 20:00:00 6.3 6 Oeste 24 Oeste 0 -- -- 85
2021-01-24 19:00:00 6.9 10 Sudoeste 35 Oeste 0 -- -- 79
2021-01-24 18:00:00 7.6 12 Oeste 32 Oeste 0 -- -- 77
2021-01-24 17:00:00 8.2 13 Sudoeste 27 Sudoeste 0 -- -- 79
2021-01-24 16:00:00 7.9 13 Sudoeste 31 Sudoeste 0 -- -- 84
2021-01-24 15:00:00 7.4 12 Sudoeste 27 Oeste 0 -- -- 91
2021-01-24 14:00:00 6.7 13 Oeste 31 Oeste 0.1 -- -- 90
2021-01-24 13:00:00 6.7 14 Sudoeste 30 Sudoeste 0 -- -- 89
2021-01-24 12:00:00 6.5 8 Sudoeste 20 Sudoeste 0 -- -- 89
2021-01-24 11:00:00 6.5 7 Oeste 16 Oeste 0 -- -- 92
2021-01-24 10:00:00 4.9 6 Oeste 15 Sudoeste 0 -- -- 92
2021-01-24 09:00:00 4.5 0 Calma 12 Sudoeste 0 -- -- 92
2021-01-24 08:00:00 4.2 5 Sudoeste 9 Sudoeste 0 -- -- 91
2021-01-24 07:00:00 4.8 5 Noroeste 9 Noroeste 0 -- -- 91
2021-01-24 06:00:00 5 5 Norte 23 Oeste 0.6 -- -- 89
2021-01-24 05:00:00 5.8 14 Oeste 31 Oeste 0 -- -- 84
2021-01-24 04:00:00 6.1 17 Oeste 31 Noroeste 0 -- -- 86
2021-01-24 03:00:00 6.4 10 Oeste 31 Oeste 0 -- -- 89
2021-01-24 02:00:00 6.3 9 Oeste 30 Oeste 0 -- -- 89
2021-01-24 01:00:00 6.2 13 Oeste 29 Oeste 0 -- -- 85
2021-01-24 00:00:00 6.5 6 Oeste 25 Oeste 0.4 -- -- 86
2021-01-23 23:00:00 7 12 Oeste 26 Oeste 0.2 -- -- 87
2021-01-23 22:00:00 7.3 9 Oeste 36 Oeste 0 -- -- 85
2021-01-23 21:00:00 7.5 9 Oeste 28 Sudoeste 0 -- -- 81
2021-01-23 20:00:00 7.8 9 Oeste 35 Oeste 0 -- -- 76
2021-01-23 19:00:00 8.1 19 Oeste 51 Noroeste 0 -- -- 72
2021-01-23 18:00:00 9.8 36 Oeste 61 Oeste 0.9 -- -- 89
2021-01-23 17:00:00 10.9 10 Oeste 33 Sudoeste 2.3 -- -- 92
2021-01-23 16:00:00 10.7 14 Sudoeste 34 Oeste 0.7 -- -- 92
2021-01-23 15:00:00 10 18 Sudoeste 36 Sudoeste 0.1 -- -- 91
2021-01-23 14:00:00 8.8 17 Sudoeste 40 Sudoeste 1.9 -- -- 90
2021-01-23 13:00:00 8.3 14 Sudoeste 32 Sudoeste 0.5 -- -- 87
2021-01-23 12:00:00 8.8 10 Sudoeste 28 Sur 0.3 -- -- 85
2021-01-23 11:00:00 6.7 6 Sur 35 Sudoeste 0.1 -- -- 86
2021-01-23 10:00:00 6.5 14 Sudoeste 34 Sudoeste 0 -- -- 87
2021-01-23 09:00:00 5.6 15 Sudoeste 32 Sudoeste 0.1 -- -- 89
2021-01-23 08:00:00 5.2 12 Sudoeste 36 Sudoeste 0 -- -- 90
2021-01-23 07:00:00 5.2 14 Sudoeste 28 Sudoeste 0 -- -- 90
2021-01-23 06:00:00 4.9 12 Sudoeste 35 Oeste 0 -- -- 90
2021-01-23 05:00:00 4.8 9 Oeste 24 Oeste 0 -- -- 90
2021-01-23 04:00:00 4.5 10 Oeste 27 Oeste 0.1 -- -- 90
2021-01-23 03:00:00 4.4 14 Oeste 30 Oeste 0 -- -- 90
2021-01-23 02:00:00 4 10 Sudoeste 27 Oeste 0 -- -- 91
2021-01-23 01:00:00 4 11 Sudoeste 25 Oeste 0 -- -- 90
2021-01-23 00:00:00 4.1 11 Oeste 23 Oeste 0 -- -- 90
2021-01-22 23:00:00 3.6 8 Sudoeste 14 Sudoeste 0 -- -- 89
2021-01-22 22:00:00 3.7 7 Sudoeste 15 Sudoeste 0 -- -- 88
2021-01-22 21:00:00 3.6 6 Sur 11 Sur 0 -- -- 87
2021-01-22 20:00:00 3.6 8 Sudoeste 23 Sudoeste 0 -- -- 87
2021-01-22 19:00:00 4.4 11 Sudoeste 23 Sudoeste 0 -- -- 84
2021-01-22 18:00:00 5.3 13 Sudoeste 26 Sudoeste 0 -- -- 81
2021-01-22 17:00:00 6 14 Sudoeste 27 Sudoeste 0 -- -- 76
2021-01-22 16:00:00 7.1 12 Oeste 31 Noroeste 0 -- -- 64
2021-01-22 15:00:00 5.9 14 Oeste 36 Oeste 0 -- -- 75
2021-01-22 14:00:00 6.7 13 Oeste 39 Oeste 0 -- -- 69
2021-01-22 13:00:00 6 15 Oeste 28 Oeste 0.3 -- -- 81
2021-01-22 12:00:00 4.8 11 Noroeste 23 Noroeste 0.4 -- -- 89
2021-01-22 11:00:00 4.3 11 Noroeste 24 Noroeste 0.6 -- -- 89
2021-01-22 10:00:00 4.2 9 Oeste 19 Noroeste 0 -- -- 89
2021-01-22 09:00:00 3.8 10 Oeste -- -- -- -- -- 89
2021-01-22 08:00:00 -- -- -- -- -- -- -- -- --
2021-01-22 07:00:00 -- -- -- -- -- -- -- -- --
2021-01-22 06:00:00 -- -- -- -- -- -- -- -- --
2021-01-22 05:00:00 -- -- -- -- -- -- -- -- --
2021-01-22 04:00:00 -- -- -- -- -- -- -- -- --
2021-01-22 03:00:00 -- -- -- -- -- -- -- -- --
2021-01-22 02:00:00 7.3 25 Oeste 54 Oeste 1.2 -- -- 81
2021-01-22 01:00:00 9 23 Oeste 69 Sudoeste 0.7 -- -- 81
2021-01-22 00:00:00 8.6 26 Sur 48 Sur 0.6 -- -- 81
2021-01-21 23:00:00 6.8 9 Sur 26 Sudoeste 0.7 -- -- 83
2021-01-21 22:00:00 7.1 9 Sur 23 Sudoeste 0 -- -- 80
2021-01-21 21:00:00 7.4 7 Sur 25 Oeste 0 -- -- 84
2021-01-21 20:00:00 7.7 12 Sudoeste 37 Oeste 0.1 -- -- 86
2021-01-21 19:00:00 8 16 Oeste 41 Sudoeste 0.1 -- -- 84
2021-01-21 18:00:00 8.4 12 Sudoeste 35 Sudoeste 0 -- -- 84
2021-01-21 17:00:00 8.8 17 Sudoeste 37 Oeste 0 -- -- 82
2021-01-21 16:00:00 9.2 14 Sudoeste 41 Oeste 0 -- -- 81
2021-01-21 15:00:00 10.2 21 Sudoeste 43 Sudoeste 0 -- -- 82
2021-01-21 14:00:00 10.2 14 Sudoeste 38 Sudoeste 0 -- -- 87
2021-01-21 13:00:00 10.7 18 Sudoeste 46 Oeste 1.7 -- -- 92
2021-01-21 12:00:00 9 15 Sudoeste 33 Sudoeste 0.7 -- -- 91
2021-01-21 11:00:00 7.8 17 Sudoeste 33 Sudoeste 1.4 -- -- 88
2021-01-21 10:00:00 7.6 14 Sudoeste 43 Sudoeste 0.4 -- -- 88
2021-01-21 09:00:00 6.8 5 Norte 21 Sur 0 -- -- 90
2021-01-21 08:00:00 6.8 12 Sur 26 Sur 0.1 -- -- 90
2021-01-21 07:00:00 6.8 5 Oeste 21 Sudoeste 0 -- -- 92
2021-01-21 06:00:00 6.5 15 Sudoeste 24 Sudoeste 0 -- -- 92
2021-01-21 05:00:00 6.8 11 Sudoeste 32 Oeste 0 -- -- 92
2021-01-21 04:00:00 6.8 14 Sudoeste 27 Sur 0 -- -- 92
2021-01-21 03:00:00 6.6 10 Sudoeste 24 Oeste 0 -- -- 92
2021-01-21 02:00:00 6.7 7 Sudoeste 24 Oeste 0 -- -- 92
2021-01-21 01:00:00 6.6 7 Sudoeste 27 Sudoeste 0 -- -- 92
2021-01-21 00:00:00 6.9 5 Oeste 21 Oeste 0.1 -- -- 92
2021-01-20 23:00:00 7 6 Oeste 23 Oeste 0 -- -- 92
2021-01-20 22:00:00 7.3 13 Oeste 21 Oeste 0.1 -- -- 92
2021-01-20 21:00:00 7.3 6 Sudoeste 22 Sudoeste 0 -- -- 92
2021-01-20 20:00:00 7.5 9 Sudoeste 23 Sudoeste 0.1 -- -- 92
2021-01-20 19:00:00 7.5 9 Sudoeste 31 Sudoeste 0.1 -- -- 92
2021-01-20 18:00:00 7.8 10 Sudoeste 26 Sudoeste 0.6 -- -- 92
2021-01-20 17:00:00 7.7 12 Sudoeste 46 Sudoeste 2.1 -- -- 90
2021-01-20 16:00:00 7.9 15 Sudoeste 48 Oeste 1.2 -- -- 90
2021-01-20 15:00:00 7.9 19 Sudoeste 39 Sudoeste 1.8 -- -- 90
2021-01-20 14:00:00 8.5 13 Sudoeste 45 Sudoeste 0.4 -- -- 90
2021-01-20 13:00:00 7.6 14 Sudoeste 35 Sudoeste 2.7 -- -- 90
2021-01-20 12:00:00 7.6 12 Sudoeste 33 Sudoeste 1.6 -- -- 89
2021-01-20 11:00:00 6.6 5 Sur 34 Sur 3.1 -- -- 87
2021-01-20 10:00:00 7.1 18 Sur 32 Sur 0.2 -- -- 88
2021-01-20 09:00:00 5.8 9 Sur 31 Sur 1.6 -- -- 93
2021-01-20 08:00:00 4.5 20 Sudeste 32 Sudeste 0 -- -- 93
2021-01-20 07:00:00 4 12 Sudeste 45 Sudeste 0.7 -- -- 93
2021-01-20 06:00:00 4.3 25 Sudeste 45 Sudeste 3.6 -- -- 92
2021-01-20 05:00:00 4.1 20 Sudeste 43 Sudeste 1.4 -- -- 92
2021-01-20 04:00:00 4 23 Sudeste 52 Sudeste 3.7 -- -- 92
2021-01-20 03:00:00 4.1 26 Sudeste 50 Sudeste 1.9 -- -- 90
2021-01-20 02:00:00 4.1 16 Sudeste 35 Sudeste 0.3 -- -- 86
2021-01-20 01:00:00 4.1 15 Este 46 Sudeste 0 -- -- 81
2021-01-20 00:00:00 4.2 28 Sudeste 50 Sudeste 0 -- -- 77
2021-01-19 23:00:00 4 19 Sur 42 Sudeste 0 -- -- 77
2021-01-19 22:00:00 3.9 12 Sur 34 Sur 0 -- -- 74
2021-01-19 21:00:00 3.9 16 Sudeste 41 Sudeste 0 -- -- 72
2021-01-19 20:00:00 4.2 22 Sudeste 38 Sudeste 0 -- -- 68
2021-01-19 19:00:00 4.8 18 Sudeste 33 Sudeste 0 -- -- 64
2021-01-19 18:00:00 6 17 Sur 40 Sudeste 0 -- -- 63
2021-01-19 17:00:00 5.3 18 Sudeste 37 Sudeste 0 -- -- 63
2021-01-19 16:00:00 5.9 23 Sudeste 44 Sudeste 0 -- -- 60
2021-01-19 15:00:00 6.7 14 Sudeste 30 Sudoeste 0 -- -- 57
2021-01-19 14:00:00 8.2 17 Sudoeste 39 Sudoeste 0 -- -- 57
2021-01-19 13:00:00 5.2 18 Sudeste 42 Sudeste 0 -- -- 65
2021-01-19 12:00:00 4.2 20 Sudeste 39 Sudeste 0 -- -- 70
2021-01-19 11:00:00 3.1 21 Sudeste 37 Sudeste 0 -- -- 76
2021-01-19 10:00:00 2.5 18 Sudeste 34 Sudeste 0 -- -- 79
2021-01-19 09:00:00 2 18 Sudeste 32 Sudeste 0 -- -- 81
2021-01-19 08:00:00 1.8 17 Sudeste 30 Sudeste 0 -- -- 84
2021-01-19 07:00:00 1.7 17 Sudeste 27 Sudeste 0 -- -- 84
2021-01-19 06:00:00 1.6 13 Sudeste 26 Sudeste 0 -- -- 84
2021-01-19 05:00:00 1.8 12 Sudeste 23 Sudeste 0 -- -- 84
2021-01-19 04:00:00 1.6 10 Sudeste 18 Sudeste 0 -- -- 88
2021-01-19 03:00:00 0.5 9 Sudeste 16 Sudeste 0 -- -- 89
2021-01-19 02:00:00 -1.5 6 Sur 11 Sur 0 -- -- 89
2021-01-19 01:00:00 -1 2 Oeste 16 Sudeste 0 -- -- 86
2021-01-19 00:00:00 -0.7 7 Sur 12 Sudeste 0 -- -- 84
2021-01-18 23:00:00 -0.3 4 Sudoeste 10 Sudeste 0 -- -- 79
2021-01-18 22:00:00 1.4 4 Sudoeste 9 Oeste 0 -- -- 71
2021-01-18 21:00:00 5 4 Sudeste 14 Sudeste 0 -- -- 68
2021-01-18 20:00:00 5.8 9 Sudeste 16 Sudeste 0 -- -- 64
2021-01-18 19:00:00 7.3 10 Sudeste 15 Sudeste 0 -- -- 57
2021-01-18 18:00:00 9.9 11 Este 22 Sudeste 0 -- -- 51
2021-01-18 17:00:00 11.9 14 Sudeste 22 Sudeste 0 -- -- 46
2021-01-18 16:00:00 13.1 12 Este 22 Sudeste 0 -- -- 44
2021-01-18 15:00:00 12.7 16 Sudeste 27 Sudeste 0 -- -- 44
2021-01-18 14:00:00 11.9 16 Sudeste 26 Sudeste 0 -- -- 44
2021-01-18 13:00:00 9.5 12 Sudeste 21 Sudeste 0 -- -- 73
2021-01-18 12:00:00 1.9 0 Calma 8 Sudoeste 0 -- -- 94
2021-01-18 11:00:00 -2.3 0 Calma -- -- 0 -- -- 94
2021-01-18 10:00:00 -4.1 0 Calma 5 Sudoeste 0 -- -- 94
2021-01-18 09:00:00 -5.5 0 Calma 6 Nordeste 0 -- -- 94
2021-01-18 08:00:00 -5 0 Calma 3 Sudoeste 0 -- -- 94
2021-01-18 07:00:00 -5 5 Sudoeste 8 Sudoeste 0 -- -- 93
2021-01-18 06:00:00 -5.5 0 Calma 7 Sudoeste 0 -- -- 93
2021-01-18 05:00:00 -5.8 0 Calma 4 Sudoeste 0 -- -- 92
2021-01-18 04:00:00 -4.6 2 Sudoeste 8 Sudoeste 0 -- -- 92
2021-01-18 03:00:00 -4.7 0 Calma 5 Sur 0 -- -- 91
2021-01-18 02:00:00 -4.5 0 Calma 5 Sudoeste 0 -- -- 91
2021-01-18 01:00:00 -4 4 Nordeste 6 Nordeste 0 -- -- 89
2021-01-18 00:00:00 -2.7 3 Sudoeste 5 Oeste 0 -- -- 89
2021-01-17 23:00:00 -2.5 0 Calma 6 Norte 0 -- -- 86
2021-01-17 22:00:00 -0.9 4 Sur 8 Sudoeste 0 -- -- 81
2021-01-17 21:00:00 1.2 6 Sudoeste 8 Sudoeste 0 -- -- 75
2021-01-17 20:00:00 3 2 Sudoeste 7 Sudoeste 0 -- -- 67
2021-01-17 19:00:00 5.3 0 Calma 10 Norte 0 -- -- 59
2021-01-17 18:00:00 9.2 5 Norte 13 Norte 0 -- -- 55
2021-01-17 17:00:00 10.6 10 Norte 18 Norte 0 -- -- 52
2021-01-17 16:00:00 11.7 7 Nordeste 14 Nordeste 0 -- -- 46
2021-01-17 15:00:00 11.3 5 Nordeste 9 Norte 0 -- -- 46
2021-01-17 14:00:00 9.4 2 Norte 6 Nordeste 0 -- -- 47
2021-01-17 13:00:00 6.7 0 Calma 5 Nordeste 0 -- -- 57
2021-01-17 12:00:00 2.9 0 Calma 6 Sur 0 -- -- 84
2021-01-17 11:00:00 -0.7 3 Sur 5 Sur 0 -- -- 92
2021-01-17 10:00:00 -5.1 0 Calma 3 Sudoeste 0 -- -- 92
2021-01-17 09:00:00 -8.1 0 Calma -- -- 0 -- -- 91
2021-01-17 08:00:00 -7.6 0 Calma -- -- 0 -- -- 91
2021-01-17 07:00:00 -7.5 0 Calma -- -- 0 -- -- 91
2021-01-17 06:00:00 -7.4 0 Calma 4 Sudeste 0 -- -- 90
2021-01-17 05:00:00 -6.5 2 Sudoeste 6 Sudoeste 0 -- -- 90
2021-01-17 04:00:00 -6.7 0 Calma 5 Noroeste 0 -- -- 89
2021-01-17 03:00:00 -6.4 4 Nordeste 6 Sudoeste 0 -- -- 88
2021-01-17 02:00:00 -6 3 Sudoeste 8 Oeste 0 -- -- 88
2021-01-17 01:00:00 -6.5 0 Calma 4 Sur 0 -- -- 86
2021-01-17 00:00:00 -6.3 3 Oeste 4 Oeste 0 -- -- 83
2021-01-16 23:00:00 -5.5 0 Calma 6 Sur 0 -- -- 79
2021-01-16 22:00:00 -3.1 5 Sudoeste 8 Sudoeste 0 -- -- 75
2021-01-16 21:00:00 -2.3 4 Sudoeste 7 Sudoeste 0 -- -- 68
2021-01-16 20:00:00 1 4 Sudoeste 7 Nordeste 0 -- -- 63
2021-01-16 19:00:00 4.5 4 Nordeste 6 Este 0 -- -- 47
2021-01-16 18:00:00 11 4 Sudeste 7 Sudeste 0 -- -- 33
2021-01-16 17:00:00 13.2 5 Sudeste 9 Sudeste 0 -- -- 30
2021-01-16 16:00:00 13.4 3 Sudeste 13 Este 0 -- -- 31
2021-01-16 15:00:00 12.3 6 Sudeste 11 Sudeste 0 -- -- 45
2021-01-16 14:00:00 8.3 2 Nordeste 9 Norte 0 -- -- 72
2021-01-16 13:00:00 4.2 3 Oeste 9 Sudoeste 0 -- -- 89
2021-01-16 12:00:00 0.2 3 Sudoeste 9 Sudoeste 0 -- -- 93
2021-01-16 11:00:00 -3.1 4 Sudoeste 6 Sudoeste 0 -- -- 93
2021-01-16 10:00:00 -6 0 Calma 4 Sudoeste 0 -- -- 93
2021-01-16 09:00:00 -8.6 0 Calma -- -- 0 -- -- 93
2021-01-16 08:00:00 -9.3 0 Calma -- -- 0 -- -- 93
2021-01-16 07:00:00 -8.9 0 Calma -- -- 0 -- -- 93
2021-01-16 06:00:00 -8 0 Calma -- -- 0 -- -- 93
2021-01-16 05:00:00 -7.8 0 Calma -- -- 0 -- -- 93
2021-01-16 04:00:00 -7.3 0 Calma -- -- 0 -- -- 92
2021-01-16 03:00:00 -7.3 0 Calma -- -- 0 -- -- 92
2021-01-16 02:00:00 -6.6 0 Calma -- -- 0 -- -- 91
2021-01-16 01:00:00 -6.9 0 Calma -- -- 0 -- -- 91
2021-01-16 00:00:00 -6.7 0 Calma 5 Norte 0 -- -- 90
2021-01-15 23:00:00 -5.7 0 Calma 4 Sur 0 -- -- 89
2021-01-15 22:00:00 -4.6 0 Calma 6 Sudeste 0 -- -- 88
2021-01-15 21:00:00 -2.9 3 Oeste 5 Oeste 0 -- -- 86
2021-01-15 20:00:00 -1.8 0 Calma 6 Este 0 -- -- 82
2021-01-15 19:00:00 1.7 3 Nordeste 6 Nordeste 0 -- -- 78
2021-01-15 18:00:00 5.1 3 Norte 9 Nordeste 0 -- -- 75
2021-01-15 17:00:00 6.5 8 Nordeste 11 Nordeste 0 -- -- 71
2021-01-15 16:00:00 6.3 3 Nordeste 11 Sur 0 -- -- 81
2021-01-15 15:00:00 5.6 4 Sudeste 10 Nordeste 0 -- -- 94
2021-01-15 14:00:00 4.2 3 Este 11 Sudeste 0 -- -- 94
2021-01-15 13:00:00 3.7 0 Calma 10 Nordeste 0 -- -- 94
2021-01-15 12:00:00 2.6 0 Calma 8 Sudoeste 0 -- -- 94
2021-01-15 11:00:00 2.2 0 Calma 7 Oeste 0 -- -- 94
2021-01-15 10:00:00 2 0 Calma 6 Oeste 0 -- -- 94
2021-01-15 09:00:00 2.1 5 Noroeste 12 Noroeste 0 -- -- 94
2021-01-15 08:00:00 2.8 2 Norte 6 Noroeste 0 -- -- 94
2021-01-15 07:00:00 3 0 Calma -- -- 0 -- -- 94
2021-01-15 06:00:00 3 0 Calma -- -- 0 -- -- 94
2021-01-15 05:00:00 3.1 0 Calma -- -- 0 -- -- 94
2021-01-15 04:00:00 3 0 Calma -- -- 0 -- -- 94
2021-01-15 03:00:00 2.9 0 Calma -- -- 0 -- -- 94
2021-01-15 02:00:00 3.3 0 Calma -- -- 0 -- -- 93
2021-01-15 01:00:00 3.3 0 Calma -- -- 0 -- -- 93
2021-01-15 00:00:00 3.5 0 Calma 3 Nordeste 0 -- -- 93
2021-01-14 23:00:00 3.3 4 Nordeste 8 Norte 0 -- -- 92
2021-01-14 22:00:00 3.2 4 Norte 8 Norte 0 -- -- 90
2021-01-14 21:00:00 3.2 0 Calma 7 Sudoeste 0 -- -- 89
2021-01-14 20:00:00 4.3 2 Sudoeste 10 Noroeste 0 -- -- 88
2021-01-14 19:00:00 4.7 5 Noroeste 8 Noroeste 0 -- -- 86
2021-01-14 18:00:00 4.5 2 Oeste 7 Sudeste 0 -- -- 85
2021-01-14 17:00:00 5.5 0 Calma 10 Norte 0 -- -- 87
2021-01-14 16:00:00 4.3 6 Norte 12 Norte 0 -- -- 90
2021-01-14 15:00:00 3.1 6 Nordeste 15 Nordeste 0 -- -- 93
2021-01-14 14:00:00 1.5 6 Nordeste 9 Nordeste 0 -- -- 94
2021-01-14 13:00:00 0.6 5 Nordeste 7 Noroeste 0 -- -- 94
2021-01-14 12:00:00 0 5 Noroeste 10 Noroeste 0 -- -- 94
2021-01-14 11:00:00 -0.7 4 Oeste 10 Oeste 0 -- -- 94
2021-01-14 10:00:00 -1.3 6 Noroeste 13 Noroeste 0 -- -- 94
2021-01-14 09:00:00 -2.5 0 Calma 4 Noroeste 0 -- -- 93
2021-01-14 08:00:00 -3.5 0 Calma 7 Sur 0 -- -- 92
2021-01-14 07:00:00 -4.9 2 Sudeste 5 Este 0 -- -- 92
2021-01-14 06:00:00 -6.4 0 Calma -- -- 0 -- -- 91
2021-01-14 05:00:00 -9.2 0 Calma 2 Noroeste 0 -- -- 90
2021-01-14 04:00:00 -8.6 0 Calma 4 Noroeste 0 -- -- 89
2021-01-14 03:00:00 -7.9 0 Calma 4 Sudeste 0 -- -- 89
2021-01-14 02:00:00 -7.4 0 Calma -- -- 0 -- -- 87
2021-01-14 01:00:00 -6.7 0 Calma 4 Sur 0 -- -- 85
2021-01-14 00:00:00 -5.8 3 Oeste 5 Oeste 0 -- -- 82
2021-01-13 23:00:00 -4.6 4 Sudoeste 5 Sudoeste 0 -- -- 78
2021-01-13 22:00:00 -3.8 0 Calma 4 Sur 0 -- -- 73
2021-01-13 21:00:00 -2.5 2 Oeste 6 Nordeste 0 -- -- 67
2021-01-13 20:00:00 0.3 3 Nordeste 8 Nordeste 0 -- -- 61
2021-01-13 19:00:00 3.1 6 Nordeste 12 Norte 0 -- -- 52
2021-01-13 18:00:00 6.8 8 Norte 12 Norte 0 -- -- 44
2021-01-13 17:00:00 11.6 4 Nordeste 7 Norte 0 -- -- 37
2021-01-13 16:00:00 10.8 5 Nordeste 7 Nordeste 0 -- -- 40
2021-01-13 15:00:00 9.5 4 Nordeste 6 Nordeste 0 -- -- 52
2021-01-13 14:00:00 7.2 3 Nordeste 6 Sudeste 0 -- -- 60
2021-01-13 13:00:00 5.3 0 Calma 5 Oeste 0 -- -- 75
2021-01-13 12:00:00 -0.5 3 Sudoeste 6 Sudoeste 0 -- -- 91
2021-01-13 11:00:00 -3.6 0 Calma 3 Norte 0 -- -- 92
2021-01-13 10:00:00 -7.5 0 Calma -- -- 0 -- -- 92
2021-01-13 09:00:00 -10.5 0 Calma 3 Norte 0 -- -- 91
2021-01-13 08:00:00 -9.2 0 Calma 5 Sudoeste 0 -- -- 91
2021-01-13 07:00:00 -9.5 2 Sudoeste 3 Sudoeste 0 -- -- 91
2021-01-13 06:00:00 -9.3 0 Calma -- -- 0 -- -- 91
2021-01-13 05:00:00 -8.5 0 Calma 4 Sudoeste 0 -- -- 90
2021-01-13 04:00:00 -8.5 0 Calma -- -- 0 -- -- 90
2021-01-13 03:00:00 -8.1 0 Calma 7 Sur 0 -- -- 89
2021-01-13 02:00:00 -7 4 Sudoeste 6 Sudoeste 0 -- -- 89
2021-01-13 01:00:00 -7 0 Calma -- -- 0 -- -- 86
2021-01-13 00:00:00 -6.7 0 Calma 6 Sudoeste 0 -- -- 85
2021-01-12 23:00:00 -5.7 4 Sudoeste 6 Sudoeste 0 -- -- 82
2021-01-12 22:00:00 -5.3 0 Calma 4 Sur 0 -- -- 77
2021-01-12 21:00:00 -3.2 4 Sudeste 5 Sudeste 0 -- -- 71
2021-01-12 20:00:00 -1.5 3 Sudoeste 9 Sudoeste 0 -- -- 64
2021-01-12 19:00:00 2 2 Sudoeste 10 Nordeste 0 -- -- 57
2021-01-12 18:00:00 5.2 9 Norte 12 Norte 0 -- -- 49
2021-01-12 17:00:00 8.6 3 Norte 6 Norte 0 -- -- 41
2021-01-12 16:00:00 8.5 5 Nordeste 9 Nordeste 0 -- -- 40
2021-01-12 15:00:00 8.6 4 Sudeste 12 Este 0 -- -- 42
2021-01-12 14:00:00 7.1 4 Sur 9 Sudeste 0 -- -- 50
2021-01-12 13:00:00 3.4 3 Oeste 7 Oeste 0 -- -- 78
2021-01-12 12:00:00 0.1 3 Sudoeste 6 Sudoeste 0 -- -- 89
2021-01-12 11:00:00 -2.9 5 Sudoeste 8 Sudoeste 0 -- -- 91
2021-01-12 10:00:00 -6.5 3 Sudoeste 4 Sudoeste 0 -- -- 91
2021-01-12 09:00:00 -8.7 0 Calma 6 Sur 0 -- -- 91
2021-01-12 08:00:00 -8.7 0 Calma 9 Sudoeste 0 -- -- 91
2021-01-12 07:00:00 -7.9 4 Sudoeste 8 Sudoeste 0 -- -- 91
2021-01-12 06:00:00 -8 3 Oeste 9 Sudoeste 0 -- -- 91
2021-01-12 05:00:00 -7.5 4 Sudoeste 7 Oeste 0 -- -- 90
2021-01-12 04:00:00 -7.1 5 Sudoeste 8 Sudoeste 0 -- -- 90
2021-01-12 03:00:00 -7.1 4 Sudoeste 7 Oeste 0 -- -- 89
2021-01-12 02:00:00 -6.2 5 Sudoeste 8 Sudoeste 0 -- -- 88
2021-01-12 01:00:00 -6.1 0 Calma 9 Oeste 0 -- -- 87
2021-01-12 00:00:00 -5.3 6 Sur 8 Sudoeste 0 -- -- 85
2021-01-11 23:00:00 -5.7 0 Calma 6 Noroeste 0 -- -- 81
2021-01-11 22:00:00 -4.8 4 Noroeste 6 Sudoeste 0 -- -- 76
2021-01-11 21:00:00 -2.9 3 Sur 9 Sudoeste 0 -- -- 70
2021-01-11 20:00:00 -1.4 5 Sudoeste 9 Sudoeste 0 -- -- 62
2021-01-11 19:00:00 1.4 6 Oeste 9 Sudoeste 0 -- -- 52
2021-01-11 18:00:00 5 3 Oeste 13 Norte 0 -- -- 48
2021-01-11 17:00:00 5.7 8 Norte 14 Norte 0 -- -- 48
2021-01-11 16:00:00 5.9 5 Nordeste 11 Nordeste 0 -- -- 46
2021-01-11 15:00:00 5.2 2 Nordeste 8 Nordeste 0 -- -- 53
2021-01-11 14:00:00 3.4 5 Norte 10 Norte 0 -- -- 60
2021-01-11 13:00:00 1.5 4 Nordeste 8 Norte 0 -- -- 74
2021-01-11 12:00:00 -0.5 0 Calma -- -- 0 -- -- 84
2021-01-11 11:00:00 -3.4 0 Calma -- -- 0 -- -- 89
2021-01-11 10:00:00 -6.9 0 Calma 5 Sudeste 0 -- -- 89
2021-01-11 09:00:00 -9.5 3 Sudeste 6 Sudeste 0 -- -- 88
2021-01-11 08:00:00 -8.8 3 Sur 9 Sur 0 -- -- 88
2021-01-11 07:00:00 -8.3 4 Sudoeste 9 Sudoeste 0 -- -- 87
2021-01-11 06:00:00 -7.6 5 Sudoeste 7 Sur 0 -- -- 86
2021-01-11 05:00:00 -7.2 3 Sudoeste 8 Sur 0 -- -- 84
2021-01-11 04:00:00 -6.2 4 Sudoeste 9 Sudoeste 0 -- -- 82
2021-01-11 03:00:00 -5.3 6 Sudoeste 10 Sur 0 -- -- 81
2021-01-11 02:00:00 -5.1 4 Sudoeste 10 Sudoeste 0 -- -- 78
2021-01-11 01:00:00 -4.3 4 Sudoeste 9 Sudoeste 0 -- -- 75
2021-01-11 00:00:00 -4.4 4 Sudoeste 12 Oeste 0 -- -- 72
2021-01-10 23:00:00 -3.7 6 Sudoeste 10 Sudoeste 0 -- -- 67
2021-01-10 22:00:00 -2.3 3 Oeste 16 Norte 0 -- -- 63
2021-01-10 21:00:00 -0.6 15 Norte 24 Norte 0 -- -- 62
2021-01-10 20:00:00 -0.3 13 Norte 25 Norte 0 -- -- 60
2021-01-10 19:00:00 0.4 17 Norte 32 Nordeste 0 -- -- 57
2021-01-10 18:00:00 1.8 19 Norte 40 Norte 0 -- -- 54
2021-01-10 17:00:00 3.6 26 Norte 42 Norte 0 -- -- 50
2021-01-10 16:00:00 4.4 22 Norte 38 Norte 0 -- -- 52
2021-01-10 15:00:00 4.7 23 Norte 40 Norte 0 -- -- 51
2021-01-10 14:00:00 4.6 23 Norte 36 Norte 0 -- -- 54
2021-01-10 13:00:00 3.8 22 Norte 38 Norte 0 -- -- 60
2021-01-10 12:00:00 2.4 16 Norte 28 Norte 0 -- -- 65
2021-01-10 11:00:00 0.9 18 Norte 30 Norte 0 -- -- 73
2021-01-10 10:00:00 -0.3 15 Norte 27 Norte 0 -- -- 80
2021-01-10 09:00:00 -1.2 11 Norte 21 Norte 0 -- -- 81
2021-01-10 08:00:00 -0.9 13 Norte 24 Norte 0 -- -- 81
2021-01-10 07:00:00 -0.5 9 Norte 21 Norte 0 -- -- 78
2021-01-10 06:00:00 0 9 Nordeste 23 Nordeste 0 -- -- 77
2021-01-10 05:00:00 -0.2 10 Norte 18 Nordeste 0 -- -- 78
2021-01-10 04:00:00 -0.4 7 Nordeste 21 Norte 0 -- -- 78
2021-01-10 03:00:00 -0.2 15 Norte 25 Norte 0 -- -- 77
2021-01-10 02:00:00 -0.2 14 Nordeste 23 Nordeste 0 -- -- 76
2021-01-10 01:00:00 -0.7 11 Nordeste 19 Nordeste 0 -- -- 77
2021-01-10 00:00:00 -0.4 9 Norte 26 Norte 0 -- -- 76
2021-01-09 23:00:00 -0.6 15 Norte 26 Norte 0 -- -- 76
2021-01-09 22:00:00 -0.5 14 Norte 24 Norte 0 -- -- 75
2021-01-09 21:00:00 -0.5 17 Norte 36 Norte 0 -- -- 74
2021-01-09 20:00:00 -0.4 22 Norte 33 Norte 0 -- -- 72
2021-01-09 19:00:00 -0.1 21 Norte 37 Norte 0 -- -- 66
2021-01-09 18:00:00 0.2 19 Norte 46 Norte 0 -- -- 65
2021-01-09 17:00:00 0.8 22 Norte 45 Nordeste 0 -- -- 63
2021-01-09 16:00:00 1.2 21 Norte 36 Norte 0 -- -- 64
2021-01-09 15:00:00 1.3 21 Norte 31 Norte 0 -- -- 65
2021-01-09 14:00:00 0.5 19 Nordeste 28 Nordeste 0 -- -- 66
2021-01-09 13:00:00 -0.9 7 Nordeste 12 Nordeste 0 -- -- 83
2021-01-09 12:00:00 -3.8 4 Sur 14 Norte 0 -- -- 87
2021-01-09 11:00:00 -6.5 3 Este 14 Sur 0 -- -- 90
2021-01-09 10:00:00 -10.4 2 Sur 7 Sur 0 -- -- 90
2021-01-09 09:00:00 -10.4 3 Sur 8 Norte 0 -- -- 90
2021-01-09 08:00:00 -10.1 3 Sur 8 Sudeste 0 -- -- 90
2021-01-09 07:00:00 -10.8 0 Calma 6 Sur 0 -- -- 89
2021-01-09 06:00:00 -10.2 0 Calma 6 Sudeste 0 -- -- 89
2021-01-09 05:00:00 -9.4 3 Sudeste 7 Sur 0 -- -- 88
2021-01-09 04:00:00 -8 4 Sur 6 Sudoeste 0 -- -- 87
2021-01-09 03:00:00 -6.8 4 Sudoeste 9 Oeste 0 -- -- 86
2021-01-09 02:00:00 -6.7 5 Oeste 8 Oeste 0 -- -- 83
2021-01-09 01:00:00 -5.2 4 Noroeste 14 Norte 0 -- -- 81
2021-01-09 00:00:00 -4.6 4 Oeste 7 Oeste 0 -- -- 78
2021-01-08 23:00:00 -3.9 5 Oeste 11 Noroeste 0 -- -- 76
2021-01-08 22:00:00 -3.6 10 Norte 14 Noroeste 0 -- -- 73
2021-01-08 21:00:00 -2.8 7 Noroeste 16 Norte 0 -- -- 72
2021-01-08 20:00:00 -1.8 11 Norte 18 Nordeste 0 -- -- 70
2021-01-08 19:00:00 -1.1 10 Norte 20 Nordeste 0 -- -- 67
2021-01-08 18:00:00 -0.3 14 Norte 22 Norte 0 -- -- 80
2021-01-08 17:00:00 0.6 0 Calma 10 Sudeste 0 -- -- 95
2021-01-08 16:00:00 -0.3 5 Sur 7 Sur 0 -- -- 95
2021-01-08 15:00:00 -2.5 4 Sur 10 Sudoeste 0 -- -- 95
2021-01-08 14:00:00 -4.1 0 Calma 6 Este 0 -- -- 95
2021-01-08 13:00:00 -5.2 3 Nordeste 7 Nordeste 0 -- -- 95
2021-01-08 12:00:00 -5.6 0 Calma -- -- 0 -- -- 95
2021-01-08 11:00:00 -5.9 0 Calma 9 Este 0 -- -- 95
2021-01-08 10:00:00 -6.6 4 Sudeste 11 Sudeste 0 -- -- 95
2021-01-08 09:00:00 -6.7 5 Sudeste 10 Sudeste 0 -- -- 95
2021-01-08 08:00:00 -6.4 0 Calma 8 Norte 0 -- -- 95
2021-01-08 07:00:00 -6.4 5 Noroeste 8 Norte 0 -- -- 95
2021-01-08 06:00:00 -6.1 0 Calma 8 Norte 0 -- -- 95
2021-01-08 05:00:00 -5.5 3 Nordeste 9 Nordeste 0 -- -- 95
2021-01-08 04:00:00 -5.2 5 Norte 8 Norte 0 -- -- 95
2021-01-08 03:00:00 -4.9 3 Norte 6 Norte 0 -- -- 95
2021-01-08 02:00:00 -4.9 0 Calma -- -- 0 -- -- 95
2021-01-08 01:00:00 -4.4 0 Calma -- -- 0 -- -- 95
2021-01-08 00:00:00 -4.2 0 Calma 5 Norte 0 -- -- 95
2021-01-07 23:00:00 -4 0 Calma 6 Norte 0 -- -- 95
2021-01-07 22:00:00 -3.6 0 Calma 8 Sur 0 -- -- 95
2021-01-07 21:00:00 -3.3 2 Sur 8 Sur 0 -- -- 95
2021-01-07 20:00:00 -3.3 6 Sur 10 Sur 0 -- -- 95
2021-01-07 19:00:00 -3.2 0 Calma 6 Sudeste 0 -- -- 95
2021-01-07 18:00:00 -3.1 0 Calma 6 Sur 0 -- -- 95
2021-01-07 17:00:00 -3.1 0 Calma 10 Nordeste 0 -- -- 95
2021-01-07 16:00:00 -3.3 4 Nordeste 11 Nordeste 0 -- -- 95
2021-01-07 15:00:00 -3.8 4 Nordeste 18 Noroeste 0 -- -- 95
2021-01-07 14:00:00 -4.4 3 Nordeste 10 Nordeste 0 -- -- 95
2021-01-07 13:00:00 -4.7 2 Este 7 Este 0 -- -- 95
2021-01-07 12:00:00 -5.7 4 Sudeste 7 Sudeste 0 -- -- 95
2021-01-07 11:00:00 -6.5 3 Nordeste 7 Norte 0 -- -- 95
2021-01-07 10:00:00 -6.9 0 Calma 9 Noroeste 0 -- -- 95
2021-01-07 09:00:00 -7 6 Noroeste 10 Noroeste 0 -- -- 95
2021-01-07 08:00:00 -6.3 6 Norte 11 Norte 0 -- -- 95
2021-01-07 07:00:00 -6 0 Calma -- -- 0 -- -- 95
2021-01-07 06:00:00 -5.7 0 Calma -- -- 0 -- -- 95
2021-01-07 05:00:00 -5.7 0 Calma -- -- 0 -- -- 95
2021-01-07 04:00:00 -5.2 0 Calma 8 Norte 0 -- -- 95
2021-01-07 03:00:00 -4.8 0 Calma 7 Nordeste 0 -- -- 95
2021-01-07 02:00:00 -4.6 3 Nordeste 7 Noroeste 0 -- -- 95
2021-01-07 01:00:00 -4.4 0 Calma -- -- 0 -- -- 95
2021-01-07 00:00:00 -4.3 0 Calma -- -- 0 -- -- 95
2021-01-06 23:00:00 -4.1 0 Calma 5 Sudoeste 0 -- -- 95
2021-01-06 22:00:00 -4.1 0 Calma 9 Sudeste 0 -- -- 95
2021-01-06 21:00:00 -3.8 0 Calma 5 Oeste 0 -- -- 95
2021-01-06 20:00:00 -3.6 0 Calma 10 Noroeste 0 -- -- 95
2021-01-06 19:00:00 -3.4 5 Norte 10 Nordeste 0 -- -- 95
2021-01-06 18:00:00 -3 6 Nordeste 13 Norte 0 -- -- 94
2021-01-06 17:00:00 -2.2 8 Norte 13 Norte 0 -- -- 94
2021-01-06 16:00:00 -2.1 7 Nordeste 15 Nordeste 0 -- -- 94
2021-01-06 15:00:00 -2.6 6 Nordeste 11 Nordeste 0 -- -- 94
2021-01-06 14:00:00 -3.5 5 Nordeste 12 Nordeste 0 -- -- 94
2021-01-06 13:00:00 -4.3 4 Nordeste 8 Norte 0 -- -- 94
2021-01-06 12:00:00 -5.4 0 Calma -- -- 0 -- -- 94
2021-01-06 11:00:00 -6.2 0 Calma -- -- 0 -- -- 94
2021-01-06 10:00:00 -6.8 0 Calma 6 Sudeste 0 -- -- 94
2021-01-06 09:00:00 -6.7 3 Sudeste 5 Sudeste 0 -- -- 94
2021-01-06 08:00:00 -5.8 2 Nordeste 5 Sudoeste 0 -- -- 94
2021-01-06 07:00:00 -5.1 2 Sudoeste 9 Sudoeste 0 -- -- 94
2021-01-06 06:00:00 -4.9 0 Calma 5 Nordeste 0 -- -- 94
2021-01-06 05:00:00 -4.6 0 Calma 6 Sur 0 -- -- 94
2021-01-06 04:00:00 -4.2 0 Calma 6 Sudeste 0 -- -- 93
2021-01-06 03:00:00 -4.2 0 Calma 7 Norte 0 -- -- 93
2021-01-06 02:00:00 -4.1 2 Nordeste 5 Nordeste 0 -- -- 92
2021-01-06 01:00:00 -5.2 0 Calma 6 Sur 0 -- -- 92
2021-01-06 00:00:00 -5.8 5 Sur 7 Sur 0 -- -- 90
2021-01-05 23:00:00 -5.1 0 Calma 6 Sudoeste 0 -- -- 89
2021-01-05 22:00:00 -4.9 3 Sudoeste 5 Sudoeste 0 -- -- 89
2021-01-05 21:00:00 -4.6 0 Calma 6 Oeste 0 -- -- 87
2021-01-05 20:00:00 -3.1 5 Sudoeste 8 Sudoeste 0 -- -- 85
2021-01-05 19:00:00 -2 2 Norte 7 Noroeste 0 -- -- 81
2021-01-05 18:00:00 0 6 Norte 11 Norte 0 -- -- 79
2021-01-05 17:00:00 1.1 11 Norte 19 Norte 0 -- -- 77
2021-01-05 16:00:00 2.8 12 Norte 17 Noroeste 0 -- -- 78
2021-01-05 15:00:00 1.8 7 Nordeste 13 Nordeste 0 -- -- 94
2021-01-05 14:00:00 0.4 0 Calma 8 Nordeste 0 -- -- 94
2021-01-05 13:00:00 -3 0 Calma 8 Nordeste 0 -- -- 94
2021-01-05 12:00:00 -4.6 0 Calma -- -- 0 -- -- 94
2021-01-05 11:00:00 -5.1 0 Calma -- -- 0 -- -- 94
2021-01-05 10:00:00 -5.7 0 Calma 8 Oeste 0 -- -- 94
2021-01-05 09:00:00 -5.4 0 Calma -- -- 0 -- -- 94
2021-01-05 08:00:00 -4.9 0 Calma 0 Calma 0 -- -- 93
2021-01-05 07:00:00 -4.5 0 Calma -- -- 0 -- -- 93
2021-01-05 06:00:00 -4.3 0 Calma 0 Calma 0 -- -- 93
2021-01-05 05:00:00 -4.9 0 Calma 9 Sudeste 0 -- -- 92
2021-01-05 04:00:00 -5.9 2 Sur 5 Norte 0 -- -- 92
2021-01-05 03:00:00 -6.3 0 Calma 8 Noroeste 0 -- -- 92
2021-01-05 02:00:00 -5.4 0 Calma 7 Sur 0 -- -- 91
2021-01-05 01:00:00 -4.6 3 Sudoeste 10 Sur 0 -- -- 91
2021-01-05 00:00:00 -4.3 8 Noroeste 10 Noroeste 0 -- -- 91
2021-01-04 23:00:00 -3.5 2 Sudoeste 12 Noroeste 0 -- -- 90
2021-01-04 22:00:00 -3.4 8 Noroeste 11 Norte 0 -- -- 89
2021-01-04 21:00:00 -2.8 4 Norte 7 Norte 0 -- -- 87
2021-01-04 20:00:00 -1.3 4 Noroeste 9 Oeste 0 -- -- 86
2021-01-04 19:00:00 -1.6 3 Norte 8 Norte 0 -- -- 82
2021-01-04 18:00:00 0 6 Norte 14 Norte 0 -- -- 78
2021-01-04 17:00:00 1.7 8 Noroeste 17 Norte 0 -- -- 76
2021-01-04 16:00:00 2.3 9 Noroeste 18 Norte 0 -- -- 76
2021-01-04 15:00:00 1.3 13 Norte 22 Norte 0 -- -- 80
2021-01-04 14:00:00 1.1 9 Norte 14 Norte 0 -- -- 84
2021-01-04 13:00:00 1.1 9 Noroeste 15 Noroeste 0 -- -- 91
2021-01-04 12:00:00 -0.5 0 Calma -- -- 0 -- -- 93
2021-01-04 11:00:00 -1.9 0 Calma -- -- 0 -- -- 93
2021-01-04 10:00:00 -3.1 0 Calma -- -- 0 -- -- 93
2021-01-04 09:00:00 -2.9 0 Calma -- -- 0 -- -- 93
2021-01-04 08:00:00 -2.2 0 Calma 5 Oeste 0.1 -- -- 93
2021-01-04 07:00:00 -2.6 0 Calma 7 Sudoeste 0 -- -- 93
2021-01-04 06:00:00 -2.9 5 Sudoeste 7 Sudoeste 0 -- -- 92
2021-01-04 05:00:00 -2.1 4 Oeste 12 Oeste 0 -- -- 92
2021-01-04 04:00:00 -2.2 6 Oeste 12 Oeste 0 -- -- 92
2021-01-04 03:00:00 -1.9 6 Sudoeste 12 Oeste 0 -- -- 92
2021-01-04 02:00:00 -2.8 0 Calma 8 Oeste 0 -- -- 91
2021-01-04 01:00:00 -0.7 5 Oeste 12 Noroeste 0 -- -- 91
2021-01-04 00:00:00 -0.6 7 Noroeste 11 Noroeste 0.1 -- -- 90
2021-01-03 23:00:00 -0.2 5 Noroeste 14 Noroeste 0 -- -- 90
2021-01-03 22:00:00 1 9 Noroeste 21 Noroeste 0 -- -- 90
2021-01-03 21:00:00 1.6 7 Noroeste 18 Noroeste 0 -- -- 90
2021-01-03 20:00:00 1.7 9 Noroeste 18 Oeste 0 -- -- 90
2021-01-03 19:00:00 1.7 11 Oeste 20 Oeste 0.1 -- -- 89
2021-01-03 18:00:00 2 9 Noroeste 19 Noroeste 0 -- -- 85
2021-01-03 17:00:00 2.8 13 Oeste 28 Oeste 0 -- -- 73
2021-01-03 16:00:00 4.4 11 Noroeste 28 Oeste 0 -- -- 62
2021-01-03 15:00:00 4.5 14 Noroeste 30 Oeste 0 -- -- 64
2021-01-03 14:00:00 3.2 17 Norte 29 Norte 0 -- -- 74
2021-01-03 13:00:00 3 15 Noroeste 28 Noroeste 0 -- -- 81
2021-01-03 12:00:00 2.1 10 Noroeste 18 Noroeste 0 -- -- 93
2021-01-03 11:00:00 0.4 3 Oeste 9 Noroeste 0 -- -- 93
2021-01-03 10:00:00 -0.7 2 Noroeste 9 Noroeste 0 -- -- 93
2021-01-03 09:00:00 -1.7 0 Calma -- -- 0 -- -- 93
2021-01-03 08:00:00 -1.5 0 Calma 6 Oeste 0 -- -- 93
2021-01-03 07:00:00 -1.2 3 Oeste 8 Noroeste 0 -- -- 92
2021-01-03 06:00:00 -1.4 0 Calma 10 Noroeste 0 -- -- 92
2021-01-03 05:00:00 -2.1 0 Calma 4 Nordeste 0 -- -- 92
2021-01-03 04:00:00 -1.1 0 Calma 11 Oeste 0 -- -- 92
2021-01-03 03:00:00 -0.5 8 Oeste 13 Noroeste 0 -- -- 92
2021-01-03 02:00:00 -1.1 4 Noroeste 11 Noroeste 0 -- -- 92
2021-01-03 01:00:00 -1.4 8 Oeste 13 Oeste 0 -- -- 91
2021-01-03 00:00:00 -1.2 5 Oeste 12 Noroeste 0 -- -- 89
2021-01-02 23:00:00 -1.3 3 Oeste 10 Oeste 0 -- -- 88
2021-01-02 22:00:00 -0.3 6 Oeste 11 Oeste 0 -- -- 87
2021-01-02 21:00:00 -0.4 6 Oeste 9 Oeste 0 -- -- 86
2021-01-02 20:00:00 -0.5 5 Sudoeste 8 Oeste 0 -- -- 83
2021-01-02 19:00:00 0.6 4 Oeste 9 Oeste 0 -- -- 80
2021-01-02 18:00:00 2 4 Norte 13 Noroeste 0 -- -- 79
2021-01-02 17:00:00 2.5 10 Noroeste 18 Noroeste 0 -- -- 75
2021-01-02 16:00:00 3 7 Noroeste 22 Norte 0 -- -- 78
2021-01-02 15:00:00 2.7 9 Norte 19 Noroeste 0 -- -- 79
2021-01-02 14:00:00 2.3 10 Norte 16 Noroeste 0 -- -- 81